• In Österreich
  • Länderverzeichnis
  • Für 7 Tage
  • Wassertemperatur
  • Satellitenkarten
  • Wetterkarte
  • News
  • Widgets
  • user-avatar
    Anmelden

    Stündliche Wetter San Miguel de Tucumán

    Heute, 22 Oktober, Sonntag

    Zeit Temperatur Niederschläge Wind Luftdruck Luftfeuchtigkeit
    00:00 +15°C° 0 mm 1 m/S 726 mmHg 77%
    01:00 +15°C° 0 mm 1 m/S 725 mmHg 76%
    02:00 +14°C° 0 mm 1 m/S 726 mmHg 75%
    03:00 +14°C° 0 mm 1 m/S 726 mmHg 74%
    04:00 +14°C° 0 mm 1 m/S 726 mmHg 73%
    05:00 +14°C° 0 mm 1 m/S 726 mmHg 72%
    06:00 +15°C° 0 mm 1 m/S 726 mmHg 64%
    07:00 +18°C° 0 mm 1 m/S 726 mmHg 56%
    08:00 +19°C° 0 mm 2 m/S 727 mmHg 48%
    09:00 +20°C° 0 mm 2 m/S 726 mmHg 43%
    10:00 +22°C° 0 mm 3 m/S 726 mmHg 37%
    11:00 +25°C° 0 mm 4 m/S 725 mmHg 32%
    12:00 +25°C° 0 mm 4 m/S 725 mmHg 30%
    13:00 +26°C° 0 mm 4 m/S 724 mmHg 29%
    14:00 +27°C° 0 mm 4 m/S 723 mmHg 28%
    15:00 +27°C° 0 mm 4 m/S 722 mmHg 29%
    16:00 +26°C° 0 mm 4 m/S 721 mmHg 30%
    17:00 +26°C° 0 mm 3 m/S 720 mmHg 31%
    18:00 +24°C° 0 mm 3 m/S 721 mmHg 35%
    19:00 +21°C° 0 mm 2 m/S 721 mmHg 39%
    20:00 +19°C° 0 mm 2 m/S 721 mmHg 43%
    21:00 +19°C° 0 mm 2 m/S 721 mmHg 44%
    22:00 +18°C° 0 mm 2 m/S 721 mmHg 44%
    23:00 +18°C° 0 mm 2 m/S 721 mmHg 45%

    Morgen, 23 Oktober, Montag

    Zeit Temperatur Niederschläge Wind Luftdruck Luftfeuchtigkeit
    00:00 +17°C° 0 mm 2 m/S 721 mmHg 46%
    01:00 +17°C° 0 mm 2 m/S 720 mmHg 47%
    02:00 +16°C° 0 mm 2 m/S 720 mmHg 49%
    03:00 +16°C° 0 mm 2 m/S 720 mmHg 50%
    04:00 +16°C° 0 mm 2 m/S 720 mmHg 52%
    05:00 +15°C° 0 mm 2 m/S 719 mmHg 54%
    06:00 +17°C° 0 mm 2 m/S 720 mmHg 50%
    07:00 +19°C° 0 mm 3 m/S 720 mmHg 47%
    08:00 +21°C° 0 mm 3 m/S 720 mmHg 43%
    09:00 +24°C° 0 mm 3 m/S 720 mmHg 39%
    10:00 +26°C° 0 mm 3 m/S 720 mmHg 36%
    11:00 +28°C° 0 mm 3 m/S 720 mmHg 32%
    12:00 +29°C° 0 mm 3 m/S 719 mmHg 31%
    13:00 +30°C° 0 mm 4 m/S 718 mmHg 30%
    14:00 +32°C° 0 mm 4 m/S 717 mmHg 28%
    15:00 +32°C° 0 mm 4 m/S 717 mmHg 29%
    16:00 +30°C° 0 mm 3 m/S 716 mmHg 31%
    17:00 +30°C° 0 mm 3 m/S 716 mmHg 32%
    18:00 +28°C° 0 mm 3 m/S 716 mmHg 37%
    19:00 +26°C° 0 mm 2 m/S 717 mmHg 42%
    20:00 +24°C° 0 mm 2 m/S 717 mmHg 48%
    21:00 +23°C° 0 mm 2 m/S 717 mmHg 49%
    22:00 +23°C° 0 mm 2 m/S 717 mmHg 50%
    23:00 +21°C° 0 mm 2 m/S 718 mmHg 52%

    übermorgen, 24 Oktober, Dienstag

    Zeit Temperatur Niederschläge Wind Luftdruck Luftfeuchtigkeit
    00:00 +22°C° 0 mm 1 m/S 717 mmHg 52%
    01:00 +21°C° 0 mm 1 m/S 717 mmHg 52%
    02:00 +21°C° 0 mm 1 m/S 716 mmHg 53%
    03:00 +21°C° 0 mm 1 m/S 716 mmHg 52%
    04:00 +20°C° 0 mm 1 m/S 716 mmHg 52%
    05:00 +20°C° 0 mm 1 m/S 716 mmHg 51%
    06:00 +21°C° 0 mm 1 m/S 716 mmHg 48%
    07:00 +23°C° 0 mm 1 m/S 717 mmHg 44%
    08:00 +25°C° 0 mm 1 m/S 718 mmHg 41%
    09:00 +27°C° 0 mm 2 m/S 718 mmHg 37%
    10:00 +29°C° 0 mm 2 m/S 718 mmHg 34%
    11:00 +32°C° 0 mm 2 m/S 718 mmHg 31%
    12:00 +32°C° 0 mm 2 m/S 717 mmHg 29%
    13:00 +34°C° 0 mm 3 m/S 716 mmHg 28%
    14:00 +35°C° 0 mm 3 m/S 715 mmHg 26%
    15:00 +35°C° 0 mm 2 m/S 715 mmHg 28%
    16:00 +34°C° 0 mm 2 m/S 715 mmHg 30%
    17:00 +34°C° 0 mm 2 m/S 714 mmHg 31%
    18:00 +31°C° 0 mm 2 m/S 715 mmHg 37%
    19:00 +29°C° 0 mm 1 m/S 716 mmHg 42%
    20:00 +26°C° 0 mm 1 m/S 716 mmHg 47%
    21:00 +26°C° 0,3 mm 1 m/S 717 mmHg 50%
    22:00 +25°C° 0,3 mm 1 m/S 717 mmHg 54%
    23:00 +24°C° 0,3 mm 1 m/S 717 mmHg 57%

    25 Oktober, Mittwoch

    Zeit Temperatur Niederschläge Wind Luftdruck Luftfeuchtigkeit
    00:00 +24°C° 0,2 mm 1 m/S 717 mmHg 59%
    01:00 +23°C° 0,2 mm 1 m/S 716 mmHg 61%
    02:00 +23°C° 0,2 mm 1 m/S 716 mmHg 63%
    03:00 +22°C° 0 mm 1 m/S 716 mmHg 64%
    04:00 +22°C° 0 mm 1 m/S 716 mmHg 65%
    05:00 +21°C° 0 mm 1 m/S 715 mmHg 67%
    06:00 +23°C° 0 mm 1 m/S 716 mmHg 62%
    07:00 +24°C° 0 mm 1 m/S 716 mmHg 58%
    08:00 +26°C° 0 mm 1 m/S 717 mmHg 53%
    09:00 +28°C° 0 mm 2 m/S 716 mmHg 49%
    10:00 +30°C° 0 mm 2 m/S 716 mmHg 45%
    11:00 +31°C° 0 mm 2 m/S 716 mmHg 41%
    12:00 +32°C° 0,1 mm 2 m/S 715 mmHg 40%
    13:00 +34°C° 0,1 mm 3 m/S 715 mmHg 40%
    14:00 +34°C° 0,1 mm 4 m/S 714 mmHg 39%
    15:00 +33°C° 0,3 mm 3 m/S 714 mmHg 44%
    16:00 +31°C° 0,3 mm 3 m/S 713 mmHg 49%
    17:00 +30°C° 0,3 mm 2 m/S 713 mmHg 54%
    18:00 +29°C° 0,6 mm 2 m/S 714 mmHg 60%
    19:00 +27°C° 0,6 mm 1 m/S 714 mmHg 65%
    20:00 +26°C° 0,6 mm 1 m/S 715 mmHg 71%
    21:00 +25°C° 0,2 mm 1 m/S 715 mmHg 73%
    22:00 +25°C° 0,2 mm 1 m/S 716 mmHg 74%
    23:00 +24°C° 0,2 mm 1 m/S 716 mmHg 76%

    26 Oktober, Donnerstag

    Zeit Temperatur Niederschläge Wind Luftdruck Luftfeuchtigkeit
    00:00 +24°C° 0,8 mm 1 m/S 716 mmHg 79%
    01:00 +23°C° 0,8 mm 1 m/S 716 mmHg 81%
    02:00 +23°C° 0,8 mm 1 m/S 716 mmHg 84%
    03:00 +23°C° 0,3 mm 1 m/S 716 mmHg 83%
    04:00 +23°C° 0,3 mm 1 m/S 717 mmHg 83%
    05:00 +22°C° 0,3 mm 1 m/S 717 mmHg 82%
    06:00 +23°C° 0 mm 1 m/S 718 mmHg 79%
    07:00 +25°C° 0 mm 2 m/S 718 mmHg 76%
    08:00 +26°C° 0 mm 2 m/S 719 mmHg 73%
    09:00 +28°C° 0 mm 2 m/S 719 mmHg 64%
    10:00 +30°C° 0 mm 2 m/S 719 mmHg 54%
    11:00 +32°C° 0 mm 2 m/S 719 mmHg 45%
    12:00 +33°C° 0 mm 3 m/S 718 mmHg 43%
    13:00 +34°C° 0 mm 3 m/S 717 mmHg 40%
    14:00 +35°C° 0 mm 3 m/S 716 mmHg 37%
    15:00 +34°C° 0 mm 3 m/S 716 mmHg 40%
    16:00 +34°C° 0 mm 3 m/S 715 mmHg 42%
    17:00 +33°C° 0 mm 3 m/S 715 mmHg 44%
    18:00 +30°C° 0 mm 2 m/S 716 mmHg 50%
    19:00 +29°C° 0 mm 2 m/S 716 mmHg 57%
    20:00 +27°C° 0 mm 1 m/S 717 mmHg 64%
    21:00 +27°C° 0 mm 1 m/S 717 mmHg 66%
    22:00 +26°C° 0 mm 1 m/S 717 mmHg 67%
    23:00 +26°C° 0 mm 1 m/S 718 mmHg 69%

    27 Oktober, Freitag

    Zeit Temperatur Niederschläge Wind Luftdruck Luftfeuchtigkeit
    00:00 +25°C° 0 mm 1 m/S 717 mmHg 71%
    01:00 +23°C° 0 mm 0 m/S 716 mmHg 73%
    02:00 +22°C° 0 mm 0 m/S 716 mmHg 76%
    03:00 +22°C° 0 mm 0 m/S 716 mmHg 77%
    04:00 +22°C° 0 mm 0 m/S 716 mmHg 79%
    05:00 +23°C° 0 mm 1 m/S 716 mmHg 80%
    06:00 +25°C° 0 mm 1 m/S 716 mmHg 75%
    07:00 +26°C° 0 mm 1 m/S 717 mmHg 70%
    08:00 +28°C° 0 mm 1 m/S 717 mmHg 66%
    09:00 +29°C° 0,1 mm 1 m/S 717 mmHg 61%
    10:00 +31°C° 0,1 mm 2 m/S 717 mmHg 56%
    11:00 +34°C° 0,1 mm 2 m/S 716 mmHg 51%
    12:00 +32°C° 1,9 mm 2 m/S 715 mmHg 53%
    13:00 +32°C° 1,9 mm 2 m/S 714 mmHg 56%
    14:00 +33°C° 1,9 mm 3 m/S 713 mmHg 58%
    15:00 +31°C° 2,1 mm 2 m/S 713 mmHg 61%
    16:00 +30°C° 2,1 mm 2 m/S 712 mmHg 64%
    17:00 +29°C° 2,1 mm 2 m/S 712 mmHg 68%
    18:00 +28°C° 0,3 mm 2 m/S 712 mmHg 71%
    19:00 +27°C° 0,3 mm 1 m/S 713 mmHg 75%
    20:00 +26°C° 0,3 mm 1 m/S 713 mmHg 79%
    21:00 +26°C° 0,2 mm 1 m/S 713 mmHg 80%
    22:00 +25°C° 0,2 mm 2 m/S 713 mmHg 80%
    23:00 +25°C° 0,2 mm 2 m/S 712 mmHg 81%
    Mehr zeigen